Location: Austin
(30.3000°N, 97.7500°W)
Time: 04:30:02
(UTC-06:00)

Cosmos 1025 Rocket - Pass Details

Date: 05 February 2026
Orbit: 588 x 608 km, 82.5° (Epoch: 15 February)

Event Time Altitude Azimuth Distance (km) Brightness Sun altitude
Rises 06:35:40 0° 0° (N) 2,869 6.4 -9.9°
Reaches altitude 10° 06:37:57 10° 6° (N) 1,962 5.6 -9.4°
Maximum altitude 06:42:10 50° 82° (E) 774 4.1 -8.5°
Drops below altitude 10° 06:46:22 10° 158° (SSE) 1,949 6.1 -7.6°
Sets 06:48:37 0° 164° (SSE) 2,847 6.9 -7.1°
